This demonstration page uses our WeatherBlox Daily Observations layout. Learn more.

Left ArrowRight Arrow

34.74481, -87.66753

Hourly Observations for September 26, 2019

Temp ( °F °C ) Dew Point ( °F °C ) Humidity (%) Winds ( mph kmh ) Pressure ( in mb ) Visibility ( mi km ) Precip ( " mm )
12:53 am 00:53 Clear 73 22.8 71 21.7 94 94 NE 5 7 29.87 1012 7 11 0.00 0.00
1:53 am 01:53 Clear with Mist and Fog 73 22.8 70 21.1 90 90 SE 3 6 29.87 1011 6 10 0.00 0.00
2:53 am 02:53 Mostly Cloudy with Mist and Fog 72 22.2 70 21.1 94 94 Calm 29.87 1012 6 10 0.00 0.00
3:53 am 03:53 Clear with Mist and Fog 72 22.2 69 20.6 91 91 Calm 29.88 1012 3 5 0.00 0.00
4:10 am 04:10 Mostly Clear with Mist and Fog 71 21.7 69 20.6 94 94 Calm 29.89 1012 1 2 0.00 0.00
4:25 am 04:25 Clear with Mist and Fog 72 22.2 69 20.6 91 91 Calm 29.89 1012 3 5 0.00 0.00
4:35 am 04:35 Clear with Mist and Fog 71 21.7 69 20.6 94 94 Calm 29.90 1013 2 3 0.00 0.00
4:48 am 04:48 Partly Cloudy with Mist and Fog 72 22 70 21 94 94 Calm 29.90 1013 3 5 0.00 0.00
4:53 am 04:53 Mostly Cloudy with Mist and Fog 72 22.2 70 21.1 94 94 Calm 29.90 1013 3 5 0.00 0.00
5:53 am 05:53 Clear with Mist and Fog 72 22.2 69 20.6 91 91 Calm 29.91 1013 6 10 0.00 0.00
6:01 am 06:01 Clear with Mist and Fog 70 21.1 68 20 93 93 Calm 29.92 1013 2 2 0.00 0.00
6:41 am 06:41 Mostly Cloudy with Fog 69 20.6 68 20 96 96 Calm 29.93 1013 0 0 0.00 0.00
6:53 am 06:53 Sunny with Fog 69 20.6 67 19.4 93 93 Calm 29.93 1013 0 0 0.00 0.00
7:02 am 07:02 Sunny with Fog 70 21.1 68 20 93 93 Calm 29.94 1014 1 1 0.00 0.00
7:13 am 07:13 Sunny with Mist and Fog 71 21.7 69 20.6 94 94 Calm 29.93 1014 2 3 0.00 0.00
7:29 am 07:29 Sunny with Mist and Fog 72 22.2 70 21.1 94 94 Calm 29.93 1014 3 5 0.00 0.00
7:53 am 07:53 Sunny 74 23.3 71 21.7 91 91 Calm 29.93 1014 7 11 0.00 0.00
8:53 am 08:53 Sunny 80 26.7 72 22.2 76 76 NW 6 9 29.95 1014 10 16 0.00 0.00
9:53 am 09:53 Sunny 84 28.9 70 21.1 63 63 WNW 8 13 29.95 1014 10 16 0.00 0.00
10:53 am 10:53 Sunny 87 30.6 68 20 53 53 NW 7 11 29.95 1014 10 16 0.00 0.00
11:53 am 11:53 Sunny 88 31.1 67 19.4 50 50 WNW 7 11 29.94 1014 10 16 0.00 0.00
12:53 pm 12:53 Sunny 91 32.8 67 19.4 45 45 VRB 3 6 29.93 1014 10 16 0.00 0.00
1:53 pm 13:53 Mostly Sunny 93 33.9 64 17.8 38 38 WNW 12 19 29.91 1013 10 16 0.00 0.00
2:53 pm 14:53 Sunny 93 33.9 64 17.8 38 38 WSW 14 22 29.90 1012 10 16 0.00 0.00
3:53 pm 15:53 Mostly Sunny 93 33.9 63 17.2 37 37 WNW 10 17 29.89 1012 10 16 0.00 0.00
4:53 pm 16:53 Sunny 93 33.9 62 16.7 36 36 W 12 19 29.88 1012 10 16 0.00 0.00
5:53 pm 17:53 Sunny 91 32.8 62 16.7 38 38 NW 5 7 29.88 1012 10 16 0.00 0.00
6:53 pm 18:53 Clear 82 27.8 64 17.8 55 55 NW 3 6 29.89 1012 10 16 0.00 0.00
7:53 pm 19:53 Clear 77 25 66 18.9 69 69 NE 3 6 29.89 1012 10 16 0.00 0.00
8:53 pm 20:53 Clear 79 26.1 68 20 69 69 NE 7 11 29.91 1013 10 16 0.00 0.00
9:53 pm 21:53 Clear 78 25.6 69 20.6 74 74 ENE 7 11 29.92 1013 10 16 0.00 0.00
11:53 pm 23:53 Clear 74 23.3 68 20 82 82 Calm 29.92 1013 10 16 0.00 0.00

Powered by AerisWeather